Location: Maiden
(35.5760°N, 81.2120°W)
Time: 05:44:21
(UTC-05:00)

Tiangong 2 - Visible Passes

Search period start: 17 February 2019 00:00
Search period end: 27 February 2019 00:00
Orbit: 381 x 390 km, 42.8° (Epoch: 16 February)

Date Brightness Start Highest point End Pass type
(mag) Time Alt. Az. Time Alt. Az. Time Alt. Az.
17 Feb 2.1 19:09:47 10° NW 19:12:40 31° NNE 19:13:43 25° NE visible
18 Feb 1.6 19:47:10 10° WNW 19:49:45 56° NW 19:49:45 56° NW visible
19 Feb 1.5 18:47:59 10° NW 18:51:03 47° NNE 18:53:38 13° E visible
19 Feb 4.2 20:25:01 10° W 20:25:54 16° W 20:25:54 16° W visible
20 Feb 1.8 19:25:29 10° WNW 19:28:33 49° SSW 19:29:54 28° SSE visible
21 Feb 3.9 20:04:12 10° WSW 20:05:44 13° SW 20:06:20 12° SSW visible
22 Feb 3.2 19:04:00 10° W 19:06:40 25° SW 19:09:19 10° SSE visible
24 Feb 4.1 18:43:10 10° WSW 18:44:40 13° SW 18:46:11 10° SSW visible
